Madison, SD

7:26 AM CDT on October 23, 2019 (GMT -0500)
Madison Municipal

Weather History for KMDS - September, 2019

Change the Weather History Date:

Sunday, September 22, 2019

  Actual Average Record
Temperature  
Mean Temperature 60 °F -  
Max Temperature 66 °F 68 °F 89 °F (2017)
Min Temperature 53 °F 43 °F 28 °F (2012)
Degree Days  
Heating Degree Days 6    
Growing Degree Days 10 (Base 50)    
Moisture  
Dew Point 53 °F    
Average Humidity 81    
Maximum Humidity 100    
Minimum Humidity 49    
Precipitation  
Precipitation 0.00 in - - ()
Sea Level Pressure  
Sea Level Pressure 29.94 in    
Wind  
Wind Speed 8 mph ()    
Max Wind Speed 15 mph    
Max Gust Speed 20 mph    
Visibility 10.0 miles    
Events Rain    
Averages and records for this station are not official NWS values.
T = Trace of Precipitation, MM = Missing Value Source: Averaged Metar Reports

Daily Weather History Graph

Daily Weather History Graph

Search for Another Location

Airport or City:

Astronomy

Sep. 22, 2019 Rise Set
Actual Time 7:15 AM CDT 7:26 PM CDT
Civil Twilight 6:46 AM CDT 7:54 PM CDT
Nautical Twilight 6:12 AM CDT 8:28 PM CDT
Astronomical Twilight 5:37 AM CDT 9:03 PM CDT
Moon No Moon Rise 3:36 PM CDT (9/22)
Length of Visible Light 13h 08m
Length of Day
12h 10m
Last Quarter, 44% of the Moon is Illuminated
Sep 22
Last Quarter
Sep 28
New
Oct 5
First Quarter
Oct 13
Full
Oct 21
Last Quarter

Hourly Weather History & Observations

Time (CDT) Temp. Dew Point Humidity Pressure Visibility Wind Dir Wind Speed Gust Speed Precip Events Conditions
12:15 AM 59.0 °F 53.6 °F 82% 29.91 in 10.0 mi WNW 8.1 mph - N/A   Clear
12:20 AM 59.0 °F 53.6 °F 82% 29.91 in 10.0 mi WNW 8.1 mph - N/A   Clear
12:35 AM 59.0 °F 53.6 °F 82% 29.91 in 10.0 mi West 9.2 mph - N/A   Clear
12:40 AM 59.0 °F 53.6 °F 82% 29.91 in 10.0 mi West 6.9 mph - N/A   Clear
12:55 AM 57.2 °F 53.6 °F 88% 29.91 in 10.0 mi West 8.1 mph - N/A   Clear
1:15 AM 57.2 °F 53.6 °F 88% 29.91 in 10.0 mi West 6.9 mph - N/A   Clear
1:35 AM 57.2 °F 53.6 °F 88% 29.90 in 10.0 mi WNW 8.1 mph - N/A   Clear
1:40 AM 57.2 °F 53.6 °F 88% 29.90 in 10.0 mi WNW 8.1 mph - N/A   Clear
1:55 AM 55.4 °F 55.4 °F 100% 29.89 in 10.0 mi WNW 8.1 mph - N/A   Clear
2:15 AM 55.4 °F 55.4 °F 100% 29.90 in 10.0 mi NW 8.1 mph - N/A   Clear
2:20 AM 55.4 °F 55.4 °F 100% 29.89 in 10.0 mi NW 9.2 mph - N/A   Clear
2:35 AM 55.4 °F 55.4 °F 100% 29.89 in 10.0 mi NW 11.5 mph - N/A   Clear
2:55 AM 55.4 °F 55.4 °F 100% 29.89 in 10.0 mi NW 12.7 mph - N/A   Clear
3:00 AM 55.4 °F 55.4 °F 100% 29.89 in 10.0 mi NW 13.8 mph - N/A   Clear
3:15 AM 55.4 °F 55.4 °F 100% 29.89 in 10.0 mi NW 15.0 mph - N/A   Clear
3:35 AM 53.6 °F 53.6 °F 100% 29.90 in 10.0 mi NNW 13.8 mph - N/A   Clear
3:55 AM 53.6 °F 53.6 °F 100% 29.90 in 10.0 mi NNW 12.7 mph - N/A   Clear
4:15 AM 53.6 °F 53.6 °F 100% 29.90 in 10.0 mi NNW 13.8 mph - N/A   Clear
4:35 AM 55.4 °F 55.4 °F 100% 29.91 in 10.0 mi NNW 12.7 mph 19.6 mph N/A   Clear
4:40 AM 55.4 °F 55.4 °F 100% 29.91 in 10.0 mi NNW 11.5 mph 19.6 mph N/A   Clear
4:55 AM 55.4 °F 55.4 °F 100% 29.91 in 10.0 mi NNW 10.4 mph - N/A   Clear
5:15 AM 55.4 °F 55.4 °F 100% 29.90 in 10.0 mi NNW 8.1 mph - N/A   Clear
5:35 AM 55.4 °F 55.4 °F 100% 29.91 in 10.0 mi NNW 6.9 mph - N/A   Clear
5:40 AM 55.4 °F 55.4 °F 100% 29.92 in 10.0 mi NW 5.8 mph - N/A   Clear
5:55 AM 55.4 °F 55.4 °F 100% 29.93 in 10.0 mi Calm Calm - N/A   Clear
6:35 AM 55.4 °F 55.4 °F 100% 29.94 in 10.0 mi Calm Calm - N/A   Mostly Cloudy
6:40 AM 55.4 °F 55.4 °F 100% 29.94 in 10.0 mi West 3.5 mph - N/A   Mostly Cloudy
6:55 AM 55.4 °F 55.4 °F 100% 29.94 in 10.0 mi NW 4.6 mph - N/A   Overcast
7:15 AM 55.4 °F 55.4 °F 100% 29.96 in 10.0 mi North - - N/A   Overcast
7:20 AM 55.4 °F 55.4 °F 100% 29.97 in 10.0 mi West 5.8 mph - N/A   Overcast
7:35 AM 55.4 °F 55.4 °F 100% 29.99 in 10.0 mi WSW 6.9 mph - N/A   Overcast
7:55 AM 55.4 °F 55.4 °F 100% 29.99 in 10.0 mi West 6.9 mph - N/A Rain Light Rain
8:00 AM 55.4 °F 55.4 °F 100% 29.98 in 10.0 mi West 4.6 mph - N/A Rain Light Rain
8:15 AM 55.4 °F 55.4 °F 100% 29.97 in 10.0 mi West 3.5 mph - N/A Rain Light Rain
8:35 AM 53.6 °F 53.6 °F 100% 29.94 in 10.0 mi NE 4.6 mph - N/A   Clear
8:40 AM 53.6 °F 53.6 °F 100% 29.93 in 10.0 mi NE 5.8 mph - N/A   Clear
8:55 AM 53.6 °F 53.6 °F 100% 29.92 in 10.0 mi North 4.6 mph - N/A   Clear
9:00 AM 53.6 °F 53.6 °F 100% 29.92 in 10.0 mi NNW 5.8 mph - N/A   Clear
9:15 AM 53.6 °F 53.6 °F 100% 29.92 in 10.0 mi North 5.8 mph - N/A   Clear
9:35 AM 55.4 °F 55.4 °F 100% 29.93 in 10.0 mi NNW 5.8 mph - N/A   Clear
9:40 AM 55.4 °F 55.4 °F 100% 29.93 in 10.0 mi NW 5.8 mph - N/A   Clear
10:15 AM 59.0 °F 59.0 °F 100% 29.94 in 10.0 mi NNW 6.9 mph - N/A   Partly Cloudy
10:20 AM 57.2 °F 57.2 °F 100% 29.94 in 10.0 mi North 6.9 mph - N/A   Partly Cloudy
10:35 AM 59.0 °F 57.2 °F 94% 29.95 in 10.0 mi NNW 5.8 mph - N/A   Partly Cloudy
11:00 AM 59.0 °F 57.2 °F 94% 29.94 in 10.0 mi NW 8.1 mph - N/A   Clear
11:15 AM 60.8 °F 57.2 °F 88% 29.94 in 10.0 mi NW 5.8 mph - N/A   Clear
11:20 AM 60.8 °F 57.2 °F 88% 29.94 in 10.0 mi NW 8.1 mph - N/A   Clear
11:35 AM 62.6 °F 55.4 °F 77% 29.94 in 10.0 mi WNW 6.9 mph - N/A   Partly Cloudy
11:40 AM 62.6 °F 55.4 °F 77% 29.95 in 10.0 mi WNW 9.2 mph - N/A   Partly Cloudy
11:55 AM 62.6 °F 53.6 °F 72% 29.95 in 10.0 mi NW 9.2 mph - N/A   Scattered Clouds
12:15 PM 62.6 °F 53.6 °F 72% 29.95 in 10.0 mi NW 11.5 mph - N/A   Mostly Cloudy
12:35 PM 62.6 °F 51.8 °F 68% 29.95 in 10.0 mi NW 11.5 mph - N/A   Partly Cloudy
12:55 PM 64.4 °F 51.8 °F 64% 29.94 in 10.0 mi NNW 12.7 mph 16.1 mph N/A   Partly Cloudy
1:00 PM 64.4 °F 50.0 °F 59% 29.94 in 10.0 mi NNW 9.2 mph 16.1 mph N/A   Partly Cloudy
1:15 PM 64.4 °F 51.8 °F 64% 29.94 in 10.0 mi NNW 11.5 mph - N/A   Scattered Clouds
1:35 PM 64.4 °F 50.0 °F 59% 29.93 in 10.0 mi NW 11.5 mph - N/A   Scattered Clouds
1:55 PM 64.4 °F 48.2 °F 56% 29.93 in 10.0 mi NNW 11.5 mph - N/A   Partly Cloudy
2:15 PM 64.4 °F 48.2 °F 56% 29.93 in 10.0 mi WNW 9.2 mph - N/A   Clear
2:20 PM 64.4 °F 48.2 °F 56% 29.93 in 10.0 mi NW 9.2 mph - N/A   Partly Cloudy
2:35 PM 64.4 °F 48.2 °F 56% 29.93 in 10.0 mi WNW 10.4 mph 17.3 mph N/A   Partly Cloudy
2:55 PM 66.2 °F 48.2 °F 52% 29.93 in 10.0 mi NW 12.7 mph - N/A   Scattered Clouds
3:00 PM 66.2 °F 48.2 °F 52% 29.93 in 10.0 mi WNW 9.2 mph - N/A   Scattered Clouds
3:15 PM 66.2 °F 48.2 °F 52% 29.93 in 10.0 mi NNW 10.4 mph - N/A   Scattered Clouds
3:20 PM 66.2 °F 48.2 °F 52% 29.93 in 10.0 mi NW 9.2 mph - N/A   Scattered Clouds
3:35 PM 66.2 °F 48.2 °F 52% 29.92 in 10.0 mi NNW 10.4 mph 16.1 mph N/A   Scattered Clouds
3:40 PM 66.2 °F 48.2 °F 52% 29.92 in 10.0 mi NNW 12.7 mph 16.1 mph N/A   Scattered Clouds
3:55 PM 66.2 °F 48.2 °F 52% 29.92 in 10.0 mi NW 8.1 mph 17.3 mph N/A   Partly Cloudy
4:00 PM 66.2 °F 48.2 °F 52% 29.92 in 10.0 mi NW 11.5 mph - N/A   Partly Cloudy
4:15 PM 64.4 °F 48.2 °F 56% 29.92 in 10.0 mi NW 11.5 mph 16.1 mph N/A   Clear
4:35 PM 66.2 °F 48.2 °F 52% 29.92 in 10.0 mi NNW 9.2 mph - N/A   Clear
4:40 PM 64.4 °F 48.2 °F 56% 29.92 in 10.0 mi NW 10.4 mph - N/A   Partly Cloudy
4:55 PM 66.2 °F 48.2 °F 52% 29.92 in 10.0 mi NW 11.5 mph - N/A   Partly Cloudy
5:00 PM 66.2 °F 46.4 °F 49% 29.92 in 10.0 mi NNW 9.2 mph - N/A   Partly Cloudy
5:15 PM 64.4 °F 48.2 °F 56% 29.93 in 10.0 mi NW 10.4 mph 16.1 mph N/A   Partly Cloudy
5:35 PM 64.4 °F 50.0 °F 59% 29.93 in 10.0 mi NW 8.1 mph - N/A   Clear
5:40 PM 64.4 °F 48.2 °F 56% 29.93 in 10.0 mi NW 8.1 mph - N/A   Clear
5:55 PM 64.4 °F 50.0 °F 59% 29.93 in 10.0 mi WNW 5.8 mph - N/A   Clear
6:00 PM 64.4 °F 48.2 °F 56% 29.94 in 10.0 mi WNW 9.2 mph - N/A   Clear
6:15 PM 64.4 °F 46.4 °F 52% 29.94 in 10.0 mi WNW 9.2 mph - N/A   Clear
6:20 PM 64.4 °F 48.2 °F 56% 29.94 in 10.0 mi WNW 6.9 mph - N/A   Clear
6:35 PM 64.4 °F 48.2 °F 56% 29.94 in 10.0 mi WNW 6.9 mph - N/A   Clear
6:40 PM 62.6 °F 48.2 °F 59% 29.94 in 10.0 mi WNW 5.8 mph - N/A   Clear
6:55 PM 62.6 °F 48.2 °F 59% 29.94 in 10.0 mi West 5.8 mph - N/A   Clear
7:00 PM 62.6 °F 48.2 °F 59% 29.95 in 10.0 mi West 5.8 mph - N/A   Clear
7:15 PM 60.8 °F 48.2 °F 63% 29.95 in 10.0 mi West 4.6 mph - N/A   Clear
7:35 PM 60.8 °F 48.2 °F 63% 29.95 in 10.0 mi SW 4.6 mph - N/A   Clear
7:55 PM 59.0 °F 50.0 °F 72% 29.96 in 10.0 mi WSW 4.6 mph - N/A   Partly Cloudy
8:00 PM 59.0 °F 50.0 °F 72% 29.96 in 10.0 mi WSW 5.8 mph - N/A   Partly Cloudy
8:15 PM 59.0 °F 53.6 °F 82% 29.96 in 10.0 mi WSW 5.8 mph - N/A   Mostly Cloudy
8:20 PM 59.0 °F 53.6 °F 82% 29.96 in 10.0 mi WSW 5.8 mph - N/A   Mostly Cloudy
8:35 PM 59.0 °F 51.8 °F 77% 29.97 in 10.0 mi West 5.8 mph - N/A   Scattered Clouds
8:55 PM 59.0 °F 53.6 °F 82% 29.97 in 10.0 mi WSW 5.8 mph - N/A   Clear
9:00 PM 59.0 °F 53.6 °F 82% 29.98 in 10.0 mi WSW 6.9 mph - N/A   Clear
9:15 PM 57.2 °F 53.6 °F 88% 29.98 in 10.0 mi WSW 4.6 mph - N/A   Clear
9:35 PM 57.2 °F 55.4 °F 94% 29.98 in 10.0 mi SW 5.8 mph - N/A   Clear
9:40 PM 57.2 °F 55.4 °F 94% 29.98 in 10.0 mi West 6.9 mph - N/A   Clear
9:55 PM 57.2 °F 55.4 °F 94% 29.98 in 10.0 mi WSW 5.8 mph - N/A   Clear
10:15 PM 55.4 °F 55.4 °F 100% 29.98 in 10.0 mi WSW 6.9 mph - N/A   Clear
10:35 PM 55.4 °F 55.4 °F 100% 29.99 in 10.0 mi WSW 6.9 mph - N/A   Clear
10:40 PM 55.4 °F 55.4 °F 100% 29.99 in 10.0 mi WSW 6.9 mph - N/A   Clear
10:55 PM 55.4 °F 55.4 °F 100% 29.98 in 10.0 mi WSW 6.9 mph - N/A   Clear
11:00 PM 55.4 °F 55.4 °F 100% 29.98 in 10.0 mi WSW 6.9 mph - N/A   Clear
11:15 PM 55.4 °F 55.4 °F 100% 29.98 in 10.0 mi WSW 6.9 mph - N/A   Clear
11:20 PM 55.4 °F 55.4 °F 100% 29.98 in 10.0 mi WSW 6.9 mph - N/A   Clear
11:35 PM 55.4 °F 55.4 °F 100% 29.99 in 10.0 mi WSW 6.9 mph - N/A   Clear
11:55 PM 55.4 °F 55.4 °F 100% 29.99 in 10.0 mi WSW 5.8 mph - N/A   Clear